Weather in Lvovo

Russia / Tambov Oblast     52°03′34″N   41°27′57″E
temp.,
°C
wind,
m/s
gust,
m/s
humid.,
%
clouds,
%
prec.,
mm/h
press.,
hPa
HPBL,
m
28 september, tue
tue2800:00+7n379657 0.0 1018184
03:00+8ne4789100 0.1 1019500
06:00+8nne4785100 0.1 1021534
09:00+7ne5785100 0.1 1022853
12:00+7ne5685100 0.1 1024990
15:00+6ne5682100 0.2 1026815
18:00+7ne5878100 0.0 1028751
21:00+6ne4879100 0.0 1029572
29 september, wed
wed2900:00+5nne35745 0.0 1030106
03:00+2nne35855 0.0 1031109
06:00+2nne378756 0.0 1032130
09:00+6ne47635 0.0 1032494
12:00+10ne454630 0.0 10321356
15:00+11ne454143 0.0 10311466
18:00+7nne34568 0.0 103253
21:00+5ne336566 0.0 103234
30 september, thu
thu3000:00+4nne22696 0.0 103314
03:00+4n22725 0.0 103319
06:00+3n33775 0.0 103339
09:00+8nne35605 0.0 1034367
12:00+11ne34479 0.0 10331322
15:00+12nne334429 0.0 10331580
18:00+9nne33595 0.0 103334
21:00+7ne22675 0.0 103423
1 october, fri
fri100:00+6ne227319 0.0 103512
03:00+6nw2270100 0.0 103524
06:00+7nw2468100 0.0 103584
09:00+10nnw3462100 0.0 1035299
12:00+13nnw3355100 0.0 1035841
15:00+14n335340 0.0 10341201
18:00+10nnw33705 0.0 103445
21:00+9n337930 0.0 103534
2 october, sat
sat200:00+9n2276100 0.0 103541
03:00+10nne227598 0.0 103557
06:00+9nne2276100 0.0 103440
09:00+11nne1272100 0.0 1034135
12:00+13ene126481 0.0 1034470
15:00+15se235745 0.0 1033999
18:00+12ssw227184 0.0 103344
21:00+12w117195 0.0 103314